Starlink 11381

operational
NORAD ID: 62094 Int'l Des: 2024-220 Owner: SPXS Country: US Constellation: starlink
LEOCIRCULAR

Über Starlink 11381

Beschreibung wird geladen...

Live-Position

3D-Globus wird geladen...

Nächste Überflüge

Höhenverlauf

Altitude vs Time

uPlot chart will show altitude changes over time

Zweizeiliger Elementsatz

1 62094U 24220G 25308.74677829 .00358718 00000-0 26442-2 0 9991
2 62094 42.9996 76.1207 0001549 316.2032 43.8713 15.71162000 55303
Epoch: 4. Nov. 2025 • Age: 7 hours

Aktueller Status

Höhe 357.1 km
Geschwindigkeit 7.70 km/s
Subsatellitenpunkt -9.68°S, 152.37°W
Startdatum 25. Nov. 2024
Alter 0.9 years
Typ internet

Technische Details

Klassifizierung Payload
Masse 960.00 kg
Trockenmasse 910.00 kg
Gesamtmasse 960.00 kg
Länge 0.30 m
Durchmesser 4.10 m
Spannweite 29.00 m
Form Box + pan
Hersteller SPXS
Bus-Typ Starlink V2MD
Phasenstatus In Orbit
Besitzer/Staat SPXS/US

Große Konstellationen

Loading constellations...